Probability
0 0 1 2 2 1 0 0 0 0 0 0 0 0 1 2 3 3 3 2 3 4 7 10 12 16 19 23 25 26 25 24 21 20 17 13 10 8 7 9 11 10 9 8
0 0 0 1 1 0 0 0 0 0 0 0 0 0 0 1 3 3 3 3 3 5 8 12 15 17 19 22 25 25 25 24 24 24 22 18 13 9 6 7 10 11 10 8
0 0 0 0 0 0 0 0 0 0 0 0 0 0 1 1 3 3 4 4 5 7 11 15 18 19 20 22 24 24 25 26 28 28 25 19 14 11 9 9 12 15 15 13
0 0 0 0 0 0 0 0 0 0 0 0 0 1 2 3 3 4 5 6 7 10 14 16 19 21 22 23 24 26 28 30 30 29 26 20 16 15 16 16 18 21 20 20
0 0 0 0 0 0 0 0 0 0 0 0 0 1 3 5 5 5 7 9 11 13 15 16 20 24 24 22 24 29 34 36 34 31 28 23 19 18 20 21 23 24 24 23
0 0 0 0 0 0 0 0 0 0 0 0 0 0 2 4 5 6 8 12 14 15 14 15 22 27 27 23 24 30 36 39 38 34 29 24 21 19 20 23 26 26 25 24
0 0 0 0 0 0 0 0 0 0 0 0 0 0 2 4 6 8 10 13 15 14 13 16 25 31 30 27 27 32 35 37 38 36 31 27 24 21 22 25 27 26 25 24
0 0 0 0 0 0 0 0 0 0 0 0 0 1 4 6 7 9 11 14 15 14 13 17 24 29 31 30 30 34 36 37 37 37 36 33 29 26 27 29 28 27 26 26
0 0 0 0 0 0 0 0 0 0 0 0 0 1 4 8 9 8 9 13 15 16 16 18 22 27 30 30 31 35 41 42 40 39 39 37 34 32 34 34 31 29 29 29
0 0 0 0 0 0 0 0 0 0 0 0 0 1 5 9 10 8 8 11 14 17 18 20 23 26 28 28 29 35 43 45 44 42 40 38 39 38 38 37 34 31 30 29
0 0 0 0 0 0 0 0 0 0 0 0 0 2 6 10 11 9 9 10 12 15 19 22 24 26 28 28 29 35 41 44 44 43 41 41 43 44 42 40 37 34 32 30
0 0 0 0 0 0 0 0 0 0 0 0 1 3 7 12 12 11 9 8 9 12 17 21 23 27 30 32 34 37 40 41 43 44 42 40 42 44 43 41 39 38 36 34
0 0 0 0 0 0 0 0 0 0 0 0 1 4 9 12 12 10 8 7 8 10 14 20 27 34 39 42 42 41 42 42 43 44 41 37 38 40 41 40 39 38 37 35
0 0 0 0 0 0 0 0 0 0 0 0 1 5 10 12 11 7 7 9 11 13 17 24 35 45 50 53 52 48 44 43 45 45 41 37 35 36 37 36 35 35 34 31
0 0 0 0 0 0 0 0 0 1 0 0 1 4 8 11 9 6 7 11 15 17 21 30 41 49 53 55 56 51 45 43 43 44 41 37 36 35 34 34 34 35 34 30
0 1 1 0 0 0 0 0 0 0 0 0 1 3 6 8 7 7 10 14 18 19 22 32 43 48 48 50 50 48 44 41 41 41 38 36 35 34 32 32 34 37 36 32
1 2 2 1 0 0 0 0 0 1 1 0 1 2 4 5 7 10 14 18 22 22 25 33 41 45 45 44 43 43 41 40 41 41 39 37 35 34 32 32 33 36 37 36
1 2 2 1 0 0 0 0 0 1 1 1 1 1 2 5 10 14 17 20 23 24 28 34 37 40 41 41 41 41 40 40 42 44 44 42 39 37 37 36 35 37 39 39
0 1 1 1 0 0 1 1 1 1 1 2 2 2 3 7 13 19 22 23 24 26 31 34 33 34 38 41 42 42 40 40 42 44 44 43 41 40 41 39 38 39 40 40
0 0 0 0 0 1 2 2 1 2 5 7 7 7 8 10 16 24 29 29 28 29 32 33 30 30 35 39 40 39 38 39 40 41 41 39 37 38 39 38 39 39 39 39
0 0 0 0 0 1 3 3 5 9 15 16 15 14 16 17 22 30 33 32 30 29 30 30 30 31 33 36 36 36 37 38 39 39 37 35 34 35 36 36 38 39 38 37
1 2 2 2 3 5 6 7 10 17 21 19 18 20 22 24 28 32 34 32 30 28 26 26 30 34 34 34 33 35 38 39 40 40 38 36 35 35 35 36 36 37 37 35
3 4 5 6 6 8 9 9 12 16 18 16 15 18 22 26 28 31 32 31 28 27 25 25 28 33 35 33 31 33 36 38 41 43 42 39 37 36 35 35 33 33 33 32
7 8 9 10 9 10 10 10 11 13 13 12 12 15 19 23 27 30 31 31 29 27 25 25 27 30 31 30 29 30 33 36 40 43 43 40 36 34 33 33 30 28 29 29
11 12 14 14 13 12 12 9 9 12 13 13 14 16 18 22 27 30 31 32 29 26 25 25 26 27 26 26 27 28 30 34 37 39 39 36 32 29 30 28 25 23 23 23
13 15 17 18 16 15 12 9 8 12 14 15 17 19 19 22 26 29 30 30 28 25 25 26 26 26 25 25 26 26 29 35 36 35 35 32 29 27 26 23 20 19 17 17
Wind_Speed
10 9 10 9 8 8 5 5 6 2 3 3 4 6 6 7 7 7 6 7 6 7 8 8 8 8 8 8 6 5 5 4 2 2 1 1 1 1 1 1 3 2 2 2
9 12 12 10 8 6 6 7 7 5 5 4 4 5 6 6 6 7 7 7 8 7 7 7 7 8 8 8 7 5 5 4 3 3 2 1 1 1 1 1 2 2 2 1
13 10 9 11 10 8 9 8 7 6 5 5 5 5 6 7 6 6 7 7 9 10 9 9 8 8 8 7 7 6 5 4 3 3 2 1 1 1 1 1 1 2 2 2
12 11 9 9 8 9 9 6 6 7 7 6 6 3 4 5 7 6 6 6 7 9 10 9 8 8 8 9 8 6 5 4 4 3 2 2 2 1 1 1 1 2 2 2
10 10 11 9 8 8 8 7 7 9 8 7 7 6 4 5 6 6 6 6 6 7 9 9 10 8 8 9 9 8 6 4 4 3 2 1 1 1 1 1 2 1 1 1
13 12 10 9 8 7 6 9 9 9 8 9 9 7 4 5 5 5 5 6 6 7 7 8 8 8 7 8 8 9 7 5 5 4 4 3 2 1 1 1 1 2 1 1
12 12 10 8 8 7 7 7 6 7 7 7 5 4 2 3 4 5 5 4 5 6 7 7 7 8 6 7 8 8 8 6 5 5 4 3 2 2 2 2 2 1 1 1
11 10 10 8 9 7 8 9 8 8 7 5 4 2 3 5 5 6 5 4 4 5 6 8 9 8 7 7 7 8 8 7 6 5 4 3 3 3 2 1 1 1 1 1
8 9 8 9 10 11 10 10 11 9 9 7 5 1 4 6 5 5 6 5 3 4 6 7 8 8 7 7 7 7 7 7 6 5 4 3 3 2 2 1 2 1 0 1
10 9 7 7 8 10 10 9 8 6 6 7 6 3 2 5 6 4 5 5 4 4 5 5 6 7 7 7 6 6 6 6 5 5 4 4 4 3 2 1 1 0 0 0
11 10 9 9 9 9 10 9 6 6 6 7 6 3 2 5 6 4 4 5 4 4 5 4 4 5 5 6 6 6 5 5 4 4 4 3 3 3 3 2 2 1 1 1
9 8 8 9 9 8 9 8 7 6 6 7 6 2 2 5 5 5 4 4 3 4 4 5 5 5 4 4 5 6 6 5 4 3 3 3 3 2 2 2 2 2 2 2
5 7 8 9 8 8 8 9 9 9 7 6 7 2 4 5 4 5 4 4 3 4 4 4 5 5 3 3 3 4 4 4 4 4 3 2 2 2 2 2 2 2 2 2
5 9 10 10 7 8 9 10 10 9 7 7 6 3 4 3 2 3 4 5 4 4 4 4 5 4 3 3 2 2 3 3 3 3 3 2 2 1 1 1 2 2 2 3
8 10 10 12 12 10 10 10 10 10 8 8 6 3 2 4 1 2 4 3 4 3 3 4 5 4 3 3 2 2 2 2 2 3 2 2 2 1 1 2 2 2 3 4
8 8 11 13 13 13 12 10 10 10 8 9 7 2 2 1 2 3 3 3 3 3 3 3 4 4 3 2 2 1 1 1 1 2 2 2 2 2 2 2 2 2 3 3
8 7 10 12 13 13 12 10 9 8 7 7 5 1 2 2 1 1 3 4 3 3 2 2 3 3 2 2 2 1 1 2 2 2 1 2 2 2 3 3 2 3 3 3
8 7 8 11 11 15 9 6 7 6 4 2 1 2 2 2 1 2 3 3 3 3 2 3 2 2 1 1 2 1 0 1 2 2 2 2 2 2 2 2 3 3 3 3
10 7 8 8 11 12 7 5 5 5 4 2 0 0 1 2 1 3 5 5 4 3 3 2 2 2 2 2 2 1 0 1 1 2 1 1 1 2 2 3 3 3 3 4
10 7 8 9 11 11 5 4 6 6 3 2 1 1 1 0 1 2 5 5 5 5 4 3 2 2 3 2 1 0 1 1 1 2 1 1 2 2 3 3 3 4 4 4
10 9 10 11 11 7 3 4 5 6 0 3 3 3 2 2 3 5 6 5 5 5 4 4 3 2 2 2 1 0 1 1 1 1 1 2 2 3 3 3 3 3 4 4
7 8 9 9 10 5 3 2 2 2 4 4 4 4 4 4 5 5 5 5 4 4 4 3 3 2 2 1 0 1 1 2 2 1 1 2 2 3 3 2 3 4 4 5
6 5 4 3 2 2 2 3 3 3 3 3 2 3 3 2 3 4 4 4 4 4 3 2 2 2 2 1 1 1 2 2 2 2 2 2 3 3 2 3 3 3 3 4
2 3 3 2 2 1 1 3 4 3 2 1 1 1 1 2 2 3 3 3 3 3 2 2 2 2 2 1 2 2 2 2 2 2 2 2 3 3 3 3 3 3 3 3
4 3 5 4 3 2 2 3 3 2 1 2 2 2 2 2 3 3 3 2 2 2 2 2 1 1 1 1 2 2 2 2 2 3 3 3 4 3 3 3 3 3 2 3
4 3 4 3 2 2 1 2 2 2 2 3 3 3 2 2 2 2 2 2 1 1 1 1 1 1 1 2 1 1 1 1 2 3 3 3 3 3 3 2 3 3 3 4
Wind_Direction
226 233 243 249 237 252 271 279 275 245 230 236 166 161 161 165 166 165 160 155 159 156 153 151 148 145 143 141 144 148 149 148 143 143 150 160 153 152 127 118 109 118 130 130
234 236 244 255 257 256 260 257 267 249 232 227 190 169 165 173 185 173 168 159 158 152 144 141 152 153 149 150 149 152 158 156 159 148 148 177 185 162 137 91 116 122 118 125
237 244 236 243 252 253 256 253 260 272 266 241 229 198 182 180 182 178 173 165 157 157 159 160 168 162 159 158 161 165 160 155 168 166 171 175 166 179 154 141 145 138 146 144
241 243 245 244 246 260 267 262 264 275 271 268 254 243 183 190 180 183 176 167 160 160 163 163 165 171 171 165 163 153 156 162 168 172 180 183 161 164 175 149 133 142 156 157
243 245 247 246 249 254 272 283 276 270 270 272 265 264 197 184 193 178 169 160 157 165 161 166 172 172 177 168 162 158 155 165 168 181 184 185 201 181 136 114 133 159 145 161
257 250 245 251 252 253 267 275 273 269 263 252 246 245 212 193 187 166 164 161 164 158 160 161 163 162 173 169 163 154 153 164 175 186 185 187 201 191 158 172 178 182 161 173
251 251 249 246 251 242 251 263 264 256 245 252 253 244 170 145 139 143 157 158 158 162 157 155 153 162 166 168 159 150 153 165 178 186 187 187 194 218 219 222 203 203 171 169
238 242 232 229 241 251 238 246 253 270 275 262 237 215 138 120 112 119 131 141 142 159 151 147 154 160 163 170 159 154 157 166 177 183 183 181 197 222 219 231 236 215 203 177
247 247 228 223 238 249 246 250 258 265 279 285 282 137 139 132 113 117 129 126 139 148 147 145 150 151 158 165 164 162 160 168 176 181 178 184 199 218 204 191 232 239 230 195
259 270 248 238 242 242 253 267 276 269 273 275 271 241 179 147 123 124 123 129 146 156 142 143 142 145 156 158 150 148 154 163 168 174 187 185 190 193 188 200 174 237 295 18
254 258 249 244 237 244 241 246 261 290 284 275 277 292 148 149 139 137 128 129 141 151 146 132 129 129 140 150 153 148 154 149 157 172 189 177 167 176 183 191 198 223 230 217
252 264 255 250 253 255 261 257 245 252 268 277 276 248 138 112 126 118 113 113 120 126 131 128 128 123 124 143 155 151 156 157 160 169 175 180 167 178 188 200 210 214 225 230
278 270 260 243 236 241 249 255 259 260 263 265 268 220 148 121 107 118 122 113 103 103 100 112 114 112 116 121 130 148 153 157 163 165 169 169 172 183 203 215 212 215 225 233
250 260 268 265 263 264 252 257 265 267 266 268 262 207 166 121 130 131 117 107 103 102 99 104 104 97 96 98 96 114 137 143 148 157 170 173 198 191 208 229 225 228 234 233
249 259 268 274 279 277 272 265 263 260 260 262 270 237 175 150 159 118 122 125 113 93 99 110 111 105 105 96 92 96 106 118 144 158 172 185 196 185 212 218 226 233 245 249
247 269 274 269 271 274 272 263 264 269 260 256 262 255 136 138 124 128 124 133 132 128 118 122 123 124 123 119 108 103 123 126 146 174 186 184 194 195 213 227 225 228 242 254
249 260 270 270 271 273 263 263 256 253 261 266 264 259 121 128 128 133 150 168 141 116 109 106 118 125 142 151 133 137 142 160 180 196 213 195 205 212 212 227 229 230 238 244
244 249 257 263 266 263 272 290 282 269 265 266 216 185 181 131 139 74 74 88 101 96 82 67 89 104 113 147 127 130 207 172 194 207 211 218 216 226 227 228 232 237 241 243
245 242 257 267 265 266 265 284 285 270 259 278 208 114 219 124 141 87 72 72 63 62 81 80 67 79 73 55 88 110 262 217 223 231 226 228 230 235 230 231 237 240 242 248
237 235 246 256 263 265 280 314 313 281 233 358 4 39 349 217 220 73 72 72 62 51 52 59 61 61 64 52 83 194 260 263 260 269 265 244 219 233 241 237 239 242 240 247
226 225 237 248 257 265 339 337 294 265 2 36 41 44 33 30 69 91 82 74 68 60 56 50 48 53 58 50 46 327 289 291 288 278 259 246 222 235 232 228 244 247 247 248
245 242 240 250 254 253 357 337 336 43 43 38 40 35 50 65 77 81 76 77 70 57 51 50 44 36 39 37 10 280 306 320 316 287 261 258 251 258 247 234 249 253 254 253
245 259 271 279 271 39 35 74 66 63 40 19 26 42 50 84 91 78 80 73 63 51 36 24 30 37 34 16 351 317 340 328 309 287 267 262 261 258 250 240 249 250 249 254
277 315 274 267 235 284 67 80 62 48 33 354 331 50 59 73 83 92 82 75 67 49 27 19 20 17 14 10 348 340 339 316 302 293 288 273 264 259 257 252 249 248 253 256
302 300 276 264 276 315 27 34 26 35 343 331 358 30 38 54 84 89 86 81 68 40 23 15 12 15 359 345 332 322 316 312 300 292 288 283 276 271 265 265 275 265 266 253
283 299 293 302 341 311 38 14 342 318 328 328 358 33 40 43 66 89 95 93 80 36 13 357 344 345 327 311 313 315 309 313 307 296 292 284 284 285 279 277 294 306 268 244